Flag for Germany Weather past 2 weeks in Hamm, North Rhine-Westphalia, Germany

Now
45 °F

Clear.


Feels Like: 45 °F
Forecast: 46 / 60 °F
Wind: 2 mph from Southwest

Location: Muenster / Osnabrueck

Current Time: Sep 23, 2014 at 4:22:14 AM

Latest Report: Sep 23, 2014 at 3:50 AM


Visibility: 10 mi

Pressure: 30.12 "Hg

Humidity: 100%

Dew point: 45 °F

Location of HammLocation

Historic Weather in Hamm — Graph

°F

Hamm temperature yesterday

Maximum temperature yesterday: 63 °F (at 4:50 PM)
Minimum temperature yesterday: 46 °F (at 11:50 PM)
Average temperature yesterday: 55 °F

Past Weeks' High & Low Weather Summary

 TemperatureHumidityPressure
High79 °F (Sep 18, 2:20 PM)100% (Sep 8, 3:20 AM)30.24 "Hg (Sep 8, 3:20 AM)
Low46 °F (Sep 9, 6:20 AM)45% (Sep 22, 5:20 PM)29.83 "Hg (Sep 19, 4:20 AM)
Average61 °F83%30.04 "Hg
* Reported Sep 8 3:20 AM — Sep 23 3:20 AM, Hamm, Weather by CustomWeather, © 2014

Note: Actual official high and low records may vary slightly from our data, if they occured in-between our weather recording intervals... More about our weather records

Advertising

Hamm weather history for previous 24 hours

 ConditionsComfort  
Time TempWeatherWind HumidityBarometerVisibility
3:20 AM
Sep 23
46 °FClear.3 mph93%30.15 "Hg10 mi
2:50 AM46 °FPassing clouds.3 mph93%30.12 "HgN/A
2:20 AM48 °FPassing clouds.3 mph87%30.15 "HgN/A
1:50 AM48 °FPassing clouds.3 mph87%30.15 "HgN/A
1:20 AM48 °FPassing clouds.3 mph87%30.15 "HgN/A
12:50 AM50 °FPassing clouds.5 mph82%30.15 "HgN/A
12:20 AM48 °FPassing clouds.5 mph87%30.15 "HgN/A
11:50 PM
Sep 22
46 °FPassing clouds.5 mph87%30.15 "HgN/A
11:20 PM48 °FPassing clouds.6 mph87%30.15 "HgN/A
10:50 PM50 °FPassing clouds.5 mph82%30.15 "HgN/A
10:20 PM50 °FPassing clouds.6 mph82%30.12 "HgN/A
9:50 PM50 °FClear.6 mph76%30.12 "Hg10 mi
9:20 PM50 °FClear.7 mph76%30.12 "Hg10 mi
8:50 PM52 °FClear.5 mph72%30.12 "Hg10 mi
8:20 PM54 °FSunny.6 mph67%30.12 "Hg10 mi
7:50 PM55 °FSunny.5 mph63%30.12 "Hg10 mi
7:20 PM57 °FPassing clouds.7 mph59%30.09 "HgN/A
6:50 PM57 °FScattered clouds.9 mph59%30.09 "HgN/A
6:20 PM59 °FPassing clouds.9 mph59%30.09 "HgN/A
5:50 PM59 °FPassing clouds.13 mph51%30.07 "HgN/A
5:20 PM61 °FPassing clouds.15 mph45%30.07 "HgN/A
4:50 PM63 °FPassing clouds.15 mph49%30.07 "HgN/A
4:20 PM61 °FScattered clouds.10 mph55%30.07 "HgN/A
3:50 PM59 °FSprinkles. Scattered clouds.10 mph63%30.07 "HgN/A
3:20 PM59 °FPassing clouds.8 mph63%30.04 "HgN/A
2:50 PM59 °FPassing clouds.12 mph63%30.04 "HgN/A
2:20 PM57 °FScattered clouds.13 mph67%30.04 "HgN/A
1:50 PM55 °FScattered clouds.13 mph77%30.04 "HgN/A
1:20 PM54 °FPassing clouds.10 mph82%30.04 "HgN/A
12:50 PM54 °FScattered clouds.9 mph88%30.04 "HgN/A
12:20 PM50 °FLight rain. Broken clouds.6 mph94%30.04 "HgN/A
11:50 AM50 °FRain. Broken clouds.14 mph88%30.07 "Hg6 mi
11:20 AM55 °FRain showers. Partly sunny.13 mph72%30.01 "Hg6 mi
10:50 AM55 °FScattered clouds.14 mph77%30.01 "HgN/A
10:20 AM55 °FScattered clouds.15 mph82%30.01 "HgN/A
9:50 AM54 °FPartly sunny.10 mph88%30.01 "HgN/A
9:20 AM55 °FSprinkles. Broken clouds.12 mph77%30.04 "HgN/A
8:50 AM55 °FPartly sunny.9 mph72%30.04 "HgN/A
8:20 AM55 °FPartly sunny.10 mph72%30.04 "HgN/A
7:50 AM54 °FPassing clouds.9 mph82%30.04 "Hg6 mi
7:20 AM55 °FPartly cloudy.9 mph77%30.04 "Hg5 mi
6:50 AM55 °FPartly cloudy.12 mph77%30.04 "HgN/A
6:20 AM54 °FPartly cloudy.10 mph88%30.04 "HgN/A
5:50 AM54 °FPartly cloudy.8 mph88%30.04 "HgN/A
5:20 AM54 °FClear.8 mph88%30.04 "Hg10 mi
4:50 AM54 °FPassing clouds.8 mph88%30.04 "HgN/A
4:20 AM54 °FLight rain. Passing clouds.8 mph88%30.04 "HgN/A
Weather by CustomWeather, © 2014

See weather overviewHow to use our weather pages